Content
SEND FEEDBACK

Daily
Averages
Monthly
Summary
Iran

MASHHAD, IRAN


Home > Middle East > Iran
Elevation: 3214 feet     Latitude: 36 16N     Longitude: 059 38E

WEATHER
 
SELECT A DAY
Number of Records: 199,562;   Date Range: 2/9/98 - 7/9/14
 
SHARE

PRINT THIS DATA

[ ← Previous Day ]
WEATHER ALMANAC - JANUARY 24, 2013
[ Next Day → ]
[ °C ]   °F
Weather ElementAverageHighLow
Temperature49.1 °F63 °F (3:30 pm)35.6 °F (3:55 am)
Dewpoint25.2 °F32 °F (10:00 am)19.4 °F (1:55 pm)
Humidity43.2 %75 % (4:20 am)10 % (3:30 pm)
Barometer30.00 in30.04 in (1:20 am)29.94 in (3:30 pm)
Wind Speed6 mph16.1 mph (1:00 pm)
Weather ElementAverage
Visibility5.4 mi
Wind DirectionSSE (164.3 °)

Weather ElementTotal
Precipitation---
Heating Degree Days15.7 (Base 65)
Averaged from 72 records on January 24, 2013
WEATHER CONDITIONS BREAKOUT
WIND DIRECTION BREAKOUT
WEATHER BY HOUR - JANUARY 24, 2013
[ °C ]   °F
Local TimeTemperatureDewpointHumidityBarometerVisibilityWind DirectionWind SpeedGust SpeedPrecipitationEventsConditions
12:20 AM41.0 °F26.6 °F57 %30.01 inSouth (190°)6.9 mphClear
12:30 AM41.0 °F26.6 °F57 %30.01 inSouth (190°)6.9 mphClear
1:00 AM37.4 °F26.6 °F65 %30.01 inSW (230°)4.6 mphClear
1:20 AM39.2 °F26.6 °F61 %30.04 inCalmClear
1:30 AM39.2 °F26.6 °F61 %30.04 inCalmClear
2:00 AM39.2 °F26.6 °F61 %30.01 inCalmClear
2:20 AM37.4 °F28.4 °F70 %30.01 inCalmClear
2:30 AM37.4 °F28.4 °F70 %30.01 inCalmClear
2:55 AM37.4 °F26.6 °F65 %30.01 inWSW (250°)4.6 mphClear
3:20 AM37.4 °F26.6 °F65 %30.01 inSSW (210°)4.6 mphClear
3:55 AM35.6 °F26.6 °F70 %30.01 inSSE (160°)4.6 mphClear
4:20 AM35.6 °F28.4 °F75 %30.01 inCalmClear
4:30 AM35.6 °F28.4 °F75 %30.01 inCalmClear
4:55 AM35.6 °F26.6 °F70 %30.01 inCalmClear
5:20 AM35.6 °F26.6 °F70 %30.01 inCalmClear
5:30 AM35.6 °F26.6 °F70 %30.01 inCalmClear
6:00 AM35.6 °F26.6 °F70 %30.01 inSouth (170°)6.9 mphClear
6:20 AM37.4 °F26.6 °F65 %30.01 in4.3 miCalm
6:30 AM37.4 °F26.6 °F65 %30.01 in4.3 miCalm
6:55 AM35.6 °F26.6 °F70 %30.04 in5.0 miCalm
7:20 AM37.4 °F28.4 °F70 %30.04 in3.7 miCalm
7:30 AM37.4 °F28.4 °F70 %30.04 in3.7 miCalm
8:00 AM44.6 °F30.2 °F57 %30.04 in5.0 miCalm
8:20 AM48.2 °F28.4 °F46 %30.04 inCalmClear
8:30 AM48.2 °F28.4 °F46 %30.04 inCalmClear
9:00 AM50.0 °F26.6 °F40 %30.04 inWest (280°)4.6 mphClear
9:20 AM53.6 °F24.8 °F33 %30.04 in4.3 miNW (320°)6.9 mph
9:30 AM53.6 °F24.8 °F33 %30.04 in4.3 miNW (320°)6.9 mph
9:30 AM53.0 °F24.0 °F20 %30.04 in4.0 miNW (320°)6.7 mphHaze
10:00 AM51.8 °F32.0 °F47 %30.04 in4.3 miENE (60°)6.9 mph
10:20 AM55.4 °F28.4 °F36 %30.04 in4.3 miNNE (20°)6.9 mph
10:30 AM55.4 °F28.4 °F36 %30.04 in4.3 miNNE (20°)6.9 mph
11:00 AM59.0 °F23.0 °F25 %30.01 inWNW (300°)6.9 mphClear
11:20 AM59.0 °F23.0 °F25 %30.01 inNorth (350°)9.2 mphClear
11:30 AM59.0 °F23.0 °F25 %30.01 inNorth (350°)9.2 mphClear
12:00 PM60.8 °F23.0 °F23 %30.01 inWNW (290°)4.6 mphClear
12:20 PM60.8 °F24.8 °F25 %29.98 in6.2 miSW (230°)11.5 mphPartly Cloudy
12:30 PM60.8 °F24.8 °F25 %29.98 in6.2 miSW (230°)11.5 mphPartly Cloudy
1:00 PM60.8 °F24.8 °F25 %29.95 in6.2 miWSW (240°)16.1 mphScattered Clouds
1:20 PM62.6 °F23.0 °F22 %29.95 in6.2 miWest (270°)11.5 mphPartly Cloudy
1:30 PM62.6 °F23.0 °F22 %29.95 in6.2 miWest (270°)11.5 mphPartly Cloudy
1:55 PM62.6 °F19.4 °F19 %29.95 in6.2 miWSW (250°)13.8 mphPartly Cloudy
2:20 PM62.6 °F21.2 °F20 %29.95 in6.2 miWest (280°)13.8 mphPartly Cloudy
2:30 PM62.6 °F21.2 °F20 %29.95 in6.2 miWest (280°)13.8 mphPartly Cloudy
3:20 PM62.6 °F21.2 °F20 %29.95 in6.2 miWest (260°)13.8 mphPartly Cloudy
3:30 PM62.6 °F21.2 °F20 %29.95 in6.2 miWest (260°)13.8 mphPartly Cloudy
3:30 PM63.0 °F20.0 °F10 %29.94 in7.0 miWest (260°)13.4 mphScattered Clouds
4:00 PM62.6 °F19.4 °F19 %29.95 in6.2 miWest (270°)13.8 mphPartly Cloudy
4:20 PM60.8 °F21.2 °F22 %29.95 in6.2 miWNW (290°)13.8 mphPartly Cloudy
4:30 PM60.8 °F21.2 °F22 %29.95 in6.2 miWNW (290°)13.8 mphPartly Cloudy
5:00 PM59.0 °F19.4 °F22 %29.95 in6.2 miWSW (240°)13.8 mphPartly Cloudy
5:20 PM57.2 °F21.2 °F25 %29.95 inWSW (250°)6.9 mphClear
5:30 PM57.2 °F21.2 °F25 %29.95 inWSW (250°)6.9 mphClear
6:00 PM55.4 °F21.2 °F26 %29.98 inSW (230°)6.9 mphClear
6:20 PM55.4 °F21.2 °F26 %29.98 inWSW (240°)4.6 mphClear
6:30 PM55.4 °F21.2 °F26 %29.98 inWSW (240°)4.6 mphClear
7:00 PM53.6 °F23.0 °F30 %30.01 inNNW (340°)9.2 mphClear
7:20 PM51.8 °F24.8 °F35 %30.01 inSSW (210°)6.9 mphClear
7:30 PM51.8 °F24.8 °F35 %30.01 inSSW (210°)6.9 mphClear
8:00 PM50.0 °F24.8 °F37 %30.01 inSouth (190°)4.6 mphClear
8:20 PM50.0 °F24.8 °F37 %30.01 inSouth (170°)4.6 mphClear
8:30 PM50.0 °F24.8 °F37 %30.01 inSouth (170°)4.6 mphClear
8:55 PM46.4 °F26.6 °F46 %30.01 inSSW (200°)4.6 mphClear
9:20 PM44.6 °F24.8 °F46 %30.01 inENE (60°)4.6 mphClear
9:30 PM44.0 °F26.0 °F35 %30.02 in7.0 miENE (60°)4.5 mph
9:30 PM44.6 °F24.8 °F46 %30.01 inENE (60°)4.6 mphClear
10:00 PM46.4 °F26.6 °F46 %30.04 inEast (80°)6.9 mphClear
10:20 PM44.6 °F28.4 °F53 %30.04 inNE (50°)4.6 mphClear
10:30 PM44.6 °F28.4 °F53 %30.04 inNE (50°)4.6 mphClear
10:55 PM44.6 °F28.4 °F53 %30.04 inWest (260°)4.6 mphClear
11:20 PM42.8 °F28.4 °F57 %30.04 inWest (280°)6.9 mphClear
11:30 PM42.8 °F28.4 °F57 %30.04 inWest (280°)6.9 mphClear
Hourly data recorded from OIMM, located miles away from Mashhad, Iran







STORIES FROM OUR PARTNERS